Starlink 30171

operational
NORAD ID: 57469 Int'l Des: 2023-107 Owner: SPXS Country: US Constellation: starlink
LEOCIRCULAR

关于 Starlink 30171

正在加载描述...

实时位置

正在加载3D地球...

即将过境

高度历史

Altitude vs Time

uPlot chart will show altitude changes over time

两行轨道根数

1 57469U 23107N 25352.23980338 .00000594 00000-0 59071-4 0 9991
2 57469 43.0048 61.3355 0001615 277.8289 82.2370 15.02537627132861
Epoch: Dec 18, 2025 • Age: 12 hours

当前状态

高度 566.9 km
速度 7.58 km/s
星下点 -31.31°S, 77.69°W
发射日期 Jul 28, 2023
运行时间 2.3 years
类型 internet

技术详情

分类 Payload
质量 730.00 kg
干质量 700.00 kg
总质量 730.00 kg
长度 0.30 m
直径 4.10 m
跨度 29.00 m
形状 Box + pan
制造商 SPXS
平台类型 Starlink V2M
阶段状态 In Orbit
所有者/国家 SPXS/US

大型星座

Loading constellations...